Location: Shenandoah County Park
(38.9356°N, 78.4524°W)
Time: 17:52:44
(UTC-04:00)

JY1SAT - Visible Passes

Search period start: 31 March 2023 00:00
Search period end: 10 April 2023 00:00
Orbit: 557 x 577 km, 97.6° (Epoch: 30 March)

Date Brightness Start Highest point End Pass type
(mag) Time Alt. Az. Time Alt. Az. Time Alt. Az.
31 Mar ? 22:17:57 16° N 22:17:57 16° N 22:18:47 10° N visible
01 Apr ? 22:18:53 16° N 22:18:53 16° N 22:19:49 10° N visible
02 Apr ? 22:19:47 17° N 22:19:47 17° N 22:20:50 10° N visible
03 Apr ? 22:20:42 18° N 22:20:42 18° N 22:21:50 10° N visible
04 Apr ? 22:21:34 19° N 22:21:34 19° N 22:22:49 10° N visible
05 Apr ? 22:22:26 20° N 22:22:26 20° N 22:23:47 10° N visible
06 Apr ? 22:23:16 21° N 22:23:16 21° N 22:24:43 10° N visible
07 Apr ? 22:24:05 22° N 22:24:05 22° N 22:25:38 10° N visible
08 Apr ? 22:24:53 23° N 22:24:53 23° N 22:26:33 10° N visible
09 Apr ? 22:25:41 25° N 22:25:41 25° N 22:27:25 10° N visible
